DateTimeUTC,F1_A11,F1_S11,BsB_S11,BsG_S11,BsR_S11,BbsB_S11,BbsG_S11,BbsR_S11,BaB_A11,BaG_A11,BaR_A11,Tu_S11,T_S11,Uu_S11,U_S11,P_S11,T1_A11
2021-05-28T03:00:00Z,00000200,20000000,,,,,,,0000.50,0000.48,0000.31,17.4,24.3,04.6,03.0,0677.9,30.8
2021-05-28T03:01:00Z,00000200,20000000,,,,,,,0000.74,0000.69,0000.33,17.4,24.4,04.6,03.0,0677.9,30.8
2021-05-28T03:02:00Z,00000200,20000000,,,,,,,0000.24,0000.07,0000.50,17.4,24.4,04.7,03.0,0677.9,30.8
2021-05-28T03:03:00Z,00000200,60000000,,,,,,,0001.04,0001.19,0000.90,17.4,24.4,04.9,03.2,0677.9,30.8
2021-05-28T03:04:00Z,00000200,40000000,0001.88,0001.54,0000.76,0000.46,0000.28,0000.37,0000.90,0000.94,0000.71,17.5,24.1,05.3,03.5,0678.9,30.8
2021-05-28T03:05:00Z,00000200,00000000,0002.15,0001.14,0000.68,0000.51,0000.07,0000.08,0000.86,0000.93,0000.40,17.6,24.1,05.5,03.7,0678.9,30.8
2021-05-28T03:06:00Z,00000200,00000000,0002.00,0001.31,0000.86,0000.03,0000.47,0000.33,0001.15,0000.81,0001.00,17.6,24.1,05.6,03.8,0678.8,30.8
2021-05-28T03:07:00Z,00000200,00000000,0001.23,0001.04,0000.67,0000.24,0000.25,0000.35,0001.04,0000.53,0000.61,17.6,24.0,05.9,04.0,0678.8,30.8
2021-05-28T03:08:00Z,00000200,00000000,0001.32,0000.90,0000.75,-000.11,0000.08,0000.00,0000.75,0001.21,0000.78,17.6,24.1,06.1,04.1,0678.8,30.8
2021-05-28T03:09:00Z,00000200,00000000,0001.71,0001.24,0000.56,0000.04,0000.38,0000.37,0000.81,0000.85,0000.64,17.6,24.1,06.2,04.2,0678.8,30.8
2021-05-28T03:10:00Z,00000200,00000000,0001.82,0001.32,0000.98,0000.05,0000.15,0000.42,0006.17,0005.24,0003.95,17.6,24.1,06.4,04.3,0678.7,30.8
2021-05-28T03:11:00Z,00000200,00000000,0009.61,0006.20,0003.80,0002.08,0001.73,0001.00,0122.70,0111.80,0086.80,17.6,24.1,06.3,04.2,0678.7,30.8
2021-05-28T03:12:00Z,00000200,00000000,0003.02,0002.05,0001.15,0000.80,0000.44,0000.41,0029.48,0026.99,0021.64,17.6,24.0,06.6,04.4,0678.6,30.8
2021-05-28T03:13:00Z,00000200,00000000,0001.81,0000.91,0000.73,0000.21,0000.56,0000.31,0002.30,0002.31,0001.97,17.6,24.0,06.7,04.5,0678.6,30.8
2021-05-28T03:14:00Z,00000200,00000000,0001.30,0001.05,0000.58,0000.19,0000.53,0000.42,0001.32,0001.03,0000.75,17.6,24.0,06.7,04.5,0678.5,30.8
2021-05-28T03:15:00Z,00000200,00000000,0002.53,0001.59,0001.07,0000.19,0000.38,0000.09,0012.60,0011.48,0008.80,17.6,24.0,06.7,04.5,0678.5,30.8
2021-05-28T03:16:00Z,00000200,00000000,0001.96,0001.21,0000.44,0000.40,0000.33,0000.11,0006.53,0005.85,0004.05,17.6,24.0,06.6,04.5,0678.5,30.8
2021-05-28T03:17:00Z,00000200,00000000,0001.65,0001.10,0001.11,-000.02,0000.36,0000.19,0001.11,0000.69,0000.85,17.6,24.0,06.6,04.4,0678.5,30.8
2021-05-28T03:18:00Z,00000200,00000000,0001.96,0000.91,0000.78,-000.29,0000.25,0000.05,0000.61,0000.86,0000.75,17.6,24.0,06.6,04.4,0678.5,30.8
2021-05-28T03:19:00Z,00000200,00000000,0001.95,0001.22,0000.63,0000.37,0000.28,0000.11,0000.78,0001.13,0000.84,17.6,24.0,06.6,04.4,0678.4,30.8
2021-05-28T03:20:00Z,00000200,00000000,0002.21,0001.26,0000.48,0000.27,0000.32,0000.08,0000.92,0000.39,0000.39,17.6,24.0,06.7,04.6,0678.4,30.8
2021-05-28T03:21:00Z,00000200,00000000,0001.96,0001.18,0000.76,-000.19,0000.52,-000.08,0001.04,0000.76,0000.87,17.6,24.0,06.8,04.6,0678.4,30.8
2021-05-28T03:22:00Z,00000200,00000000,0001.54,0001.07,0000.86,0000.28,0000.26,0000.40,0001.09,0001.24,0000.43,17.6,24.0,06.7,04.6,0678.4,30.8
2021-05-28T03:23:00Z,00000200,00000000,0002.03,0000.96,0000.90,0000.15,0000.25,0000.11,0000.32,0000.39,0000.50,17.6,24.0,06.8,04.6,0678.4,30.8
2021-05-28T03:24:00Z,00000200,00000000,0001.39,0001.08,0000.69,0000.22,0000.41,0000.56,0000.88,0000.90,0000.71,17.6,24.0,06.8,04.6,0678.4,30.8
2021-05-28T03:25:00Z,00000200,00000000,0001.28,0001.37,0000.42,0000.32,0000.21,0000.25,0001.18,0000.72,0000.42,17.6,24.0,06.9,04.7,0678.4,30.8
2021-05-28T03:26:00Z,00000200,00000000,0001.91,0001.01,0000.46,0000.28,0000.53,0000.00,0000.72,0001.15,0000.63,17.6,24.0,06.9,04.6,0678.4,30.8
2021-05-28T03:27:00Z,00000200,00000000,0001.09,0001.36,0000.51,0000.34,0000.30,0000.10,0000.87,0000.27,0000.67,17.6,24.0,06.9,04.7,0678.4,30.8
2021-05-28T03:28:00Z,00000200,00000000,0002.13,0001.16,0000.78,0000.41,0000.22,0000.23,0000.76,0001.02,0000.80,17.6,24.0,06.9,04.7,0678.4,30.8
2021-05-28T03:29:00Z,00000200,00000000,0001.04,0001.16,0000.51,0000.36,0000.37,0000.29,0000.95,0000.86,0000.28,17.6,24.0,07.0,04.8,0678.4,30.8
2021-05-28T03:30:00Z,00000200,00000000,0001.48,0001.05,0000.64,0000.09,0000.19,0000.46,0000.84,0000.61,0000.52,17.6,24.0,07.0,04.7,0678.4,30.8
2021-05-28T03:31:00Z,00000200,00000000,0001.39,0001.30,0000.83,-000.02,0000.42,0000.12,0000.85,0000.60,0000.59,17.6,24.0,07.1,04.8,0678.4,30.8
2021-05-28T03:32:00Z,00000200,00000000,0001.47,0000.84,0000.56,0000.44,0000.23,0000.27,0000.63,0000.54,0000.42,17.6,24.0,07.2,04.9,0678.4,30.8
2021-05-28T03:33:00Z,00000200,00000000,0001.78,0001.12,0000.65,0000.88,0000.39,0000.41,0000.35,0000.78,0000.52,17.6,24.0,07.2,04.8,0678.3,30.8
2021-05-28T03:34:00Z,00000200,00000000,0001.50,0001.35,0000.55,0000.32,0000.21,0000.18,0001.14,0000.64,0000.51,17.6,24.0,07.3,04.9,0678.3,30.8
2021-05-28T03:35:00Z,00000200,00000000,0001.49,0000.79,0000.60,0000.50,0000.12,0000.03,0001.04,0000.83,0000.91,17.6,24.0,07.6,05.1,0678.3,30.8
2021-05-28T03:36:00Z,00000200,00000000,0001.65,0001.16,0000.34,-000.00,0000.49,0000.23,0000.54,0000.80,0000.26,17.6,24.0,07.6,05.2,0678.3,30.8
2021-05-28T03:37:00Z,00000200,00000000,0001.50,0000.71,0000.81,0000.35,0000.12,0000.45,0001.03,0000.67,0000.49,17.6,24.0,07.6,05.1,0678.3,30.8
2021-05-28T03:38:00Z,00000200,00000000,0001.19,0001.10,0000.54,0000.05,0000.22,0000.41,0000.45,0000.70,0000.65,17.6,23.9,07.6,05.2,0678.2,30.8
2021-05-28T03:39:00Z,00000200,00000000,0001.56,0000.93,0000.75,0000.18,0000.31,0000.22,0000.81,0000.68,0000.60,17.6,24.0,07.8,05.3,0678.3,30.8
2021-05-28T03:40:00Z,00000200,00000000,0001.30,0000.96,0000.63,0000.22,0000.06,0000.09,0000.75,0000.83,0000.54,17.6,23.9,07.8,05.3,0678.3,30.8
2021-05-28T03:41:00Z,00000200,00000000,0001.73,0000.90,0000.54,0000.85,0000.20,0000.11,0000.62,0000.37,0000.22,17.6,23.9,07.9,05.3,0678.3,30.8
2021-05-28T03:42:00Z,00000200,00000000,0001.42,0000.97,0000.78,0000.25,0000.38,0000.32,0000.50,0000.82,0000.77,17.6,24.0,07.8,05.3,0678.3,30.8
2021-05-28T03:43:00Z,00000200,00000000,0001.87,0000.85,0000.35,0000.09,0000.42,-000.02,0000.51,0000.43,0000.32,17.6,23.9,07.8,05.3,0678.2,30.8
2021-05-28T03:44:00Z,00000200,00000000,0001.52,0000.82,0000.53,-000.27,-000.12,0000.13,0001.11,0001.08,0000.71,17.7,23.9,07.8,05.3,0678.2,30.8
2021-05-28T03:45:00Z,00000200,00000000,0001.42,0000.91,0000.76,-000.17,0000.15,0000.38,0000.88,0000.57,0000.59,17.7,24.0,07.9,05.4,0678.2,30.8
2021-05-28T03:46:00Z,00000200,00000000,0001.76,0001.05,0000.73,-000.04,0000.40,0000.42,0000.51,0000.38,0000.49,17.7,24.0,08.0,05.4,0678.1,30.8
2021-05-28T03:47:00Z,00000200,00000000,0001.19,0000.87,0000.34,0000.14,0000.38,0000.05,0000.67,0000.61,0000.18,17.7,24.0,08.0,05.4,0678.1,30.8
2021-05-28T03:48:00Z,00000200,00000000,0001.10,0001.13,0000.67,0000.41,0000.42,0000.09,0000.84,0000.79,0000.66,17.7,24.0,08.1,05.5,0678.1,30.8
2021-05-28T03:49:00Z,00000200,00000000,0001.81,0000.74,0000.45,0000.72,0000.24,0000.13,0000.49,0000.63,0000.41,17.7,24.0,08.1,05.5,0678.1,30.8
2021-05-28T03:50:00Z,00000200,00000000,0001.76,0000.87,0000.48,-000.40,0000.34,0000.03,0000.46,0000.46,0000.65,17.7,24.0,08.0,05.4,0678.1,30.8
2021-05-28T03:51:00Z,00000200,00000000,0001.18,0000.86,0000.55,-000.20,0000.25,0000.24,0001.22,0000.81,0000.63,17.7,24.0,08.0,05.5,0678.1,30.8
2021-05-28T03:52:00Z,00000200,00000000,0001.55,0000.91,0000.63,0000.78,0000.44,-000.07,0000.74,0000.36,0000.04,17.7,23.9,08.0,05.4,0678.1,30.8
2021-05-28T03:53:00Z,00000200,00000000,0001.46,0000.72,0000.69,0000.05,0000.10,0000.39,0000.27,0000.93,0000.49,17.7,23.9,07.9,05.4,0678.1,30.8
2021-05-28T03:54:00Z,00000200,00000000,0001.19,0000.94,0000.56,0000.11,-000.03,0000.22,0000.96,0000.50,0000.52,17.7,24.0,07.9,05.4,0678.1,30.8
2021-05-28T03:55:00Z,00000200,00000000,0001.16,0001.36,0000.89,0000.13,0000.14,0000.59,0000.44,0000.56,0000.66,17.7,24.0,08.0,05.4,0678.2,30.8
2021-05-28T03:56:00Z,00000200,00000000,0001.52,0000.97,0000.69,0000.59,0000.39,0000.16,0000.84,0000.82,0000.24,17.7,24.0,07.9,05.4,0678.2,30.8
2021-05-28T03:57:00Z,00000200,40000000,,,,,,,0000.19,-000.08,0000.07,17.7,24.0,07.7,05.2,0678.2,30.8
2021-05-28T03:58:00Z,00000200,60000000,,,,,,,0000.38,0000.47,0000.30,17.5,24.1,07.5,05.0,0677.2,30.8
2021-05-28T03:59:00Z,00000200,20000000,,,,,,,0000.15,0000.25,0000.30,17.5,24.2,07.6,05.0,0677.1,30.8
